EW6055 Weather Reports


time (UTC)temp
C
wind
direction
speed
KPH
gust
KPH
rain 1hr
cm
rain 24hr
cm
rain mn
cm
humidity
%
barometer
mb
20260506015024 18 120 0.0 3.2 0.00 0.00 0.00 67 1013.3
20260506014503 18 0 0.0 0.0 0.00 0.00 0.00 68 1013.3
20260506014002 18 0 0.0 0.0 0.00 0.00 0.00 67 1013.4
20260506013502 18 0 0.0 0.0 0.00 0.00 0.00 68 1013.4
20260506013002 18 0 0.0 0.0 0.00 0.00 0.00 68 1013.3
20260506012503 17 0 0.0 0.0 0.00 0.00 0.00 68 1013.4
20260506012003 17 284 0.0 1.6 0.00 0.00 0.00 68 1013.4
20260506011502 17 282 0.0 3.2 0.00 0.00 0.00 68 1013.4
20260506011003 17 281 0.0 3.2 0.00 0.00 0.00 68 1013.4
20260506010503 17 0 0.0 0.0 0.00 0.00 0.00 68 1013.4
20260506010003 17 308 0.0 4.8 0.00 0.00 0.00 68 1013.4
20260506005503 18 301 1.6 4.8 0.00 0.00 0.00 68 1013.3
20260506005002 18 287 0.0 3.2 0.00 0.00 0.00 68 1013.4
20260506004503 18 281 1.6 6.4 0.00 0.00 0.00 68 1013.4
20260506004003 18 275 0.0 6.4 0.00 0.00 0.00 68 1013.5
20260506003502 18 265 0.0 4.8 0.00 0.00 0.00 68 1013.5
20260506003002 18 262 0.0 4.8 0.00 0.00 0.00 68 1013.5
20260506002502 17 267 1.6 4.8 0.00 0.00 0.00 68 1013.4
20260506002003 18 270 1.6 3.2 0.00 0.00 0.00 67 1013.5
20260506001502 18 246 0.0 3.2 0.00 0.00 0.00 68 1013.5
20260506001003 18 0 0.0 0.0 0.00 0.00 0.00 68 1013.6
20260506000524 18 0 0.0 0.0 0.00 0.00 0.00 68 1013.6
20260506000003 18 0 0.0 0.0 0.00 0.00 0.00 68 1013.6
20260505235503 18 0 0.0 0.0 0.00 0.00 0.00 67 1013.7
20260505235003 18 0 0.0 0.0 0.00 0.00 0.00 67 1013.8
20260505234503 18 0 0.0 0.0 0.00 0.00 0.00 67 1013.8
20260505234002 18 0 0.0 0.0 0.00 0.00 0.00 67 1013.9
20260505233502 18 0 0.0 0.0 0.00 0.00 0.00 67 1013.9
20260505233002 18 0 0.0 0.0 0.00 0.00 0.00 67 1013.8
20260505232502 18 0 0.0 0.0 0.00 0.00 0.00 67 1013.8
20260505232002 18 0 0.0 0.0 0.00 0.00 0.00 67 1013.8
20260505231503 18 279 0.0 4.8 0.00 0.00 0.00 67 1013.8
20260505231002 18 301 1.6 6.4 0.00 0.00 0.00 67 1013.9
20260505230502 18 305 1.6 6.4 0.00 0.00 0.00 66 1013.9
20260505230003 18 265 0.0 4.8 0.00 0.00 0.00 66 1014.0
20260505225503 18 0 0.0 0.0 0.00 0.00 0.00 66 1014.0
20260505225003 18 284 0.0 3.2 0.00 0.00 0.00 67 1014.0
20260505224502 18 280 1.6 6.4 0.00 0.00 0.00 67 1014.1
20260505224024 18 267 1.6 6.4 0.00 0.00 0.00 67 1014.1
20260505223523 18 261 1.6 4.8 0.00 0.00 0.00 67 1014.2
20260505223024 18 271 1.6 4.8 0.00 0.00 0.00 67 1014.2
20260505222502 18 300 1.6 8.0 0.00 0.00 0.00 68 1014.2
20260505222003 18 292 1.6 8.0 0.00 0.00 0.00 67 1014.2
20260505221503 18 258 1.6 6.4 0.00 0.00 0.00 67 1014.2
20260505221024 18 266 1.6 6.4 0.00 0.00 0.00 67 1014.2
20260505220503 18 278 1.6 6.4 0.00 0.00 0.00 67 1014.3
20260505220002 18 276 0.0 4.8 0.00 0.00 0.00 68 1014.3
20260505215502 18 264 0.0 1.6 0.00 0.00 0.00 68 1014.2
20260505215024 18 240 0.0 4.8 0.00 0.00 0.00 68 1014.3
20260505214524 18 258 1.6 6.4 0.00 0.00 0.00 68 1014.3
20260505214002 17 260 1.6 6.4 0.00 0.00 0.00 69 1014.3
20260505213503 17 235 1.6 4.8 0.00 0.00 0.00 68 1014.3
20260505213002 17 270 1.6 4.8 0.00 0.00 0.00 68 1014.4
20260505212524 17 296 0.0 4.8 0.00 0.00 0.00 68 1014.3
20260505212024 17 259 0.0 4.8 0.00 0.00 0.00 69 1014.4
20260505211502 17 243 1.6 4.8 0.00 0.00 0.00 68 1014.4
20260505211023 17 263 1.6 4.8 0.00 0.00 0.00 69 1014.5
20260505210524 17 286 1.6 4.8 0.00 0.00 0.00 69 1014.5
20260505210024 17 0 0.0 0.0 0.00 0.00 0.00 70 1014.5
20260505205503 17 237 0.0 3.2 0.00 0.00 0.00 70 1014.4
20260505205003 17 233 1.6 4.8 0.00 0.00 0.00 70 1014.5
20260505204524 17 246 1.6 4.8 0.00 0.00 0.00 70 1014.6
20260505204003 17 282 0.0 3.2 0.00 0.00 0.00 70 1014.6
20260505203502 17 0 0.0 0.0 0.00 0.00 0.00 71 1014.6
20260505203003 17 295 1.6 4.8 0.00 0.00 0.00 70 1014.7
20260505202503 17 295 1.6 4.8 0.00 0.00 0.00 70 1014.7
20260505202003 17 278 0.0 1.6 0.00 0.00 0.00 71 1014.7
20260505201503 17 0 0.0 0.0 0.00 0.00 0.00 71 1014.7
20260505201024 17 0 0.0 0.0 0.00 0.00 0.00 71 1014.8
20260505200503 17 115 0.0 4.8 0.00 0.00 0.00 71 1014.8
20260505200023 17 166 1.6 4.8 0.00 0.00 0.00 71 1014.8
20260505195503 17 221 1.6 4.8 0.00 0.00 0.00 71 1014.8
20260505195024 17 221 1.6 3.2 0.00 0.00 0.00 71 1014.8
20260505194503 17 207 1.6 3.2 0.00 0.00 0.00 70 1014.8
20260505194003 17 193 0.0 3.2 0.00 0.00 0.00 71 1014.8
20260505193503 17 0 0.0 0.0 0.00 0.00 0.00 71 1014.8
20260505193003 16 177 0.0 4.8 0.00 0.00 0.00 73 1014.9
20260505192503 16 185 1.6 4.8 0.00 0.00 0.00 72 1014.9
20260505192024 16 192 0.0 3.2 0.00 0.00 0.00 73 1014.8
20260505191503 16 0 0.0 0.0 0.00 0.00 0.00 73 1014.8
20260505191002 16 0 0.0 0.0 0.00 0.00 0.00 74 1014.8
20260505190503 16 109 0.0 1.6 0.00 0.00 0.00 74 1014.8
20260505190003 16 132 0.0 4.8 0.00 0.00 0.00 73 1014.9
20260505185503 16 148 1.6 4.8 0.00 0.00 0.00 73 1014.8
20260505185003 16 178 1.6 3.2 0.00 0.00 0.00 74 1014.9
20260505184503 16 200 1.6 3.2 0.00 0.00 0.00 74 1014.9
20260505184024 16 232 1.6 3.2 0.00 0.00 0.00 75 1014.9
20260505183503 16 240 1.6 4.8 0.00 0.00 0.00 75 1015.0
20260505183003 16 239 0.0 4.8 0.00 0.00 0.00 75 1014.9
20260505182524 15 235 0.0 3.2 0.00 0.00 0.00 76 1014.8
20260505182002 15 202 1.6 3.2 0.00 0.00 0.00 77 1014.8
20260505181502 15 210 1.6 3.2 0.00 0.00 0.00 77 1014.8
20260505181003 15 211 1.6 3.2 0.00 0.00 0.00 78 1014.8
20260505180503 15 173 0.0 1.6 0.00 0.00 0.00 78 1014.8
20260505180003 15 247 1.6 4.8 0.00 0.00 0.00 78 1014.8
20260505175503 15 231 1.6 4.8 0.00 0.00 0.00 79 1014.8
20260505175003 15 210 1.6 4.8 0.00 0.00 0.00 79 1014.8
20260505174503 14 211 1.6 3.2 0.00 0.00 0.00 79 1014.8
20260505174003 14 201 1.6 3.2 0.00 0.00 0.00 80 1014.7
20260505173524 14 190 1.6 3.2 0.00 0.00 0.00 80 1014.7
20260505173024 14 196 1.6 3.2 0.00 0.00 0.00 81 1014.7
20260505172503 14 210 1.6 3.2 0.00 0.00 0.00 82 1014.7
20260505172024 13 208 1.6 8.0 0.00 0.00 0.00 83 1014.6
20260505171503 13 152 1.6 8.0 0.00 0.00 0.00 85 1014.6
20260505171003 13 133 1.6 6.4 0.00 0.00 0.00 85 1014.6
20260505170524 13 139 1.6 4.8 0.00 0.00 0.00 86 1014.6
20260505170003 13 172 1.6 4.8 0.00 0.00 0.00 86 1014.6
20260505165524 13 193 1.6 4.8 0.00 0.00 0.00 87 1014.5
20260505165003 13 231 1.6 4.8 0.00 0.00 0.00 87 1014.5
20260505164524 12 228 1.6 4.8 0.00 0.00 0.00 87 1014.5
20260505164002 12 214 0.0 4.8 0.00 0.00 0.00 87 1014.5
20260505163503 12 0 0.0 0.0 0.00 0.00 0.00 88 1014.5
20260505163003 12 0 0.0 0.0 0.00 0.00 0.00 88 1014.4
20260505162503 12 0 0.0 0.0 0.00 0.00 0.00 89 1014.3
20260505162002 12 0 0.0 0.0 0.00 0.00 0.00 90 1014.4
20260505161503 12 0 0.0 0.0 0.00 0.00 0.00 90 1014.3
20260505161024 12 0 0.0 0.0 0.00 0.00 0.00 90 1014.3
20260505160502 12 0 0.0 0.0 0.00 0.00 0.00 90 1014.3
20260505153024 11 0 0.0 0.0 0.00 0.00 0.00 92 1014.3
20260505152524 11 0 0.0 0.0 0.00 0.00 0.00 92 1014.2
20260505152002 11 0 0.0 0.0 0.00 0.00 0.00 92 1014.3
20260505151524 11 0 0.0 0.0 0.00 0.00 0.00 92 1014.2
20260505151003 11 0 0.0 0.0 0.00 0.00 0.00 92 1014.2
20260505150503 11 0 0.0 0.0 0.00 0.00 0.00 92 1014.2
20260505140503 11 0 0.0 0.0 0.00 0.00 0.00 90 1013.7
20260505125003 11 179 1.6 3.2 0.00 0.00 0.00 88 1013.2
20260505124524 11 168 0.0 3.2 0.00 0.00 0.00 88 1013.2
20260505124003 11 186 0.0 1.6 0.00 0.00 0.00 88 1013.2
20260505123503 11 0 0.0 0.0 0.00 0.00 0.00 88 1013.2
20260505123003 11 198 0.0 3.2 0.00 0.00 0.00 88 1013.1
20260505122503 11 178 0.0 3.2 0.00 0.00 0.00 88 1013.1
20260505122003 11 172 0.0 3.2 0.00 0.00 0.00 88 1013.2
20260505121503 11 200 0.0 1.6 0.00 0.00 0.00 88 1013.2
20260505121003 11 0 0.0 0.0 0.00 0.00 0.00 88 1013.1
20260505120503 11 0 0.0 0.0 0.00 0.00 0.00 88 1013.1
20260505120003 11 0 0.0 0.0 0.00 0.00 0.00 88 1013.1
20260505115524 11 213 0.0 1.6 0.00 0.00 0.00 88 1013.0
20260505114503 11 210 0.0 3.2 0.00 0.00 0.00 89 1013.0
20260505114003 11 202 0.0 3.2 0.00 0.00 0.00 89 1013.0
20260505113503 11 204 0.0 3.2 0.00 0.00 0.00 89 1013.0
20260505113003 11 210 1.6 4.8 0.00 0.00 0.00 88 1013.1
20260505112503 11 203 1.6 4.8 0.00 0.00 0.00 88 1013.0
20260505112003 11 192 0.0 3.2 0.00 0.00 0.00 88 1012.9
20260505111503 11 0 0.0 0.0 0.00 0.00 0.00 88 1012.9
20260505111024 11 0 0.0 0.0 0.00 0.00 0.00 88 1012.9
20260505110503 11 198 0.0 1.6 0.00 0.00 0.00 88 1012.9
20260505102003 11 183 1.6 3.2 0.00 0.00 0.00 88 1012.5
20260505101503 11 184 0.0 3.2 0.00 0.00 0.00 88 1012.4
20260505101003 11 201 0.0 3.2 0.00 0.00 0.00 88 1012.5
20260505100524 11 195 0.0 3.2 0.00 0.00 0.00 89 1012.5
20260505100003 11 200 1.6 3.2 0.00 0.00 0.00 89 1012.5
20260505095503 11 206 0.0 3.2 0.00 0.00 0.00 89 1012.5
20260505095003 11 0 0.0 0.0 0.00 0.00 0.00 89 1012.5
20260505094524 11 153 0.0 1.6 0.00 0.00 0.00 89 1012.5
20260505094003 11 153 0.0 1.6 0.00 0.00 0.00 89 1012.4
20260505093503 11 168 0.0 3.2 0.00 0.00 0.00 89 1012.3
20260505093003 11 183 0.0 3.2 0.00 0.00 0.00 89 1012.3
20260505092503 11 197 0.0 3.2 0.00 0.00 0.00 89 1012.2
20260505092024 11 196 1.6 3.2 0.00 0.00 0.00 89 1012.2
20260505091503 11 190 1.6 1.6 0.00 0.00 0.00 89 1012.2
20260505091003 11 190 1.6 3.2 0.00 0.00 0.00 89 1012.1
20260505090503 11 191 1.6 3.2 0.00 0.00 0.00 88 1012.2
20260505090003 11 188 0.0 3.2 0.00 0.00 0.00 88 1012.1
20260505085503 11 0 0.0 0.0 0.00 0.00 0.00 88 1012.1
20260505085024 11 212 1.6 3.2 0.00 0.00 0.00 88 1012.1
20260505084503 11 199 1.6 3.2 0.00 0.00 0.00 88 1012.0
20260505084024 11 189 1.6 3.2 0.00 0.00 0.00 87 1012.0
20260505083503 11 207 1.6 4.8 0.00 0.00 0.00 87 1012.0
20260505083003 11 203 1.6 4.8 0.00 0.00 0.00 87 1012.0
20260505082503 11 191 1.6 3.2 0.00 0.00 0.00 87 1012.0
20260505082003 12 215 0.0 3.2 0.00 0.00 0.00 87 1012.0
20260505081503 12 206 1.6 3.2 0.00 0.00 0.00 87 1012.0
20260505081003 12 203 1.6 4.8 0.00 0.00 0.00 86 1011.9
20260505080503 12 199 1.6 4.8 0.00 0.00 0.00 86 1011.9
20260505080003 12 193 1.6 4.8 0.00 0.00 0.00 86 1011.8
20260505075503 12 196 1.6 4.8 0.00 0.00 0.00 86 1011.7
20260505075003 12 191 1.6 4.8 0.00 0.00 0.00 86 1011.8
20260505074503 12 191 1.6 3.2 0.00 0.00 0.00 85 1011.7
20260505074003 12 191 1.6 6.4 0.00 0.00 0.00 86 1011.5
20260505073503 12 193 1.6 6.4 0.00 0.00 0.00 85 1011.5
20260505073003 12 198 1.6 11.3 0.00 0.00 0.00 85 1011.5
20260505072503 12 192 1.6 11.3 0.00 0.00 0.00 85 1011.5
20260505072024 12 190 1.6 9.7 0.00 0.00 0.00 85 1011.4
20260505071503 12 191 1.6 9.7 0.00 0.00 0.00 84 1011.3
20260505071003 12 194 3.2 9.7 0.00 0.00 0.00 84 1011.2
20260505070503 12 192 3.2 9.7 0.00 0.00 0.00 84 1011.2
20260505070024 12 185 1.6 9.7 0.00 0.00 0.00 84 1011.1
20260505065525 12 181 1.6 6.4 0.00 0.00 0.00 83 1011.0
20260505065003 12 181 1.6 6.4 0.00 0.00 0.00 83 1011.0
20260505064525 12 186 1.6 4.8 0.00 0.00 0.00 83 1011.0
20260505064024 12 189 1.6 8.0 0.00 0.00 0.00 83 1010.9
20260505063524 12 178 1.6 8.0 0.00 0.00 0.00 82 1010.8
20260505063003 13 154 1.6 8.0 0.00 0.00 0.00 82 1010.9
20260505062503 13 160 1.6 9.7 0.00 0.00 0.00 82 1010.8
20260505062024 13 159 1.6 9.7 0.00 0.00 0.00 81 1010.7
20260505061503 13 151 1.6 6.4 0.00 0.00 0.00 81 1010.7
20260505061003 13 181 1.6 6.4 0.00 0.00 0.00 81 1010.7
20260505060503 13 185 3.2 14.5 0.00 0.00 0.00 80 1010.7
20260505060003 13 179 1.6 14.5 0.00 0.00 0.00 80 1010.7
20260505055503 13 173 1.6 8.0 0.00 0.00 0.00 80 1010.7
20260505055025 14 170 1.6 12.9 0.00 0.00 0.00 79 1010.7
20260505054503 14 177 1.6 12.9 0.00 0.00 0.00 79 1010.6
20260505054004 14 189 1.6 8.0 0.00 0.00 0.00 79 1010.6
20260505053503 15 188 1.6 12.9 0.00 0.00 0.00 78 1010.5
20260505053024 15 187 3.2 14.5 0.00 0.00 0.00 78 1010.4
20260505052503 15 189 4.8 17.7 0.00 0.00 0.00 78 1010.4
20260505052003 15 190 3.2 17.7 0.00 0.00 0.00 77 1010.4
20260505051503 15 187 3.2 14.5 0.00 0.00 0.00 77 1010.4
20260505051003 15 182 3.2 14.5 0.00 0.00 0.00 76 1010.4
20260505050503 15 180 4.8 16.1 0.00 0.00 0.00 76 1010.3
20260505041503 17 182 1.6 4.8 0.00 0.00 0.00 71 1009.6
20260505041003 17 183 1.6 3.2 0.00 0.00 0.00 71 1009.5
20260505040503 17 186 1.6 3.2 0.00 0.00 0.00 71 1009.4
20260505040004 18 190 1.6 3.2 0.00 0.00 0.00 70 1009.3
20260505035503 18 189 1.6 3.2 0.00 0.00 0.00 70 1009.3
20260505035003 18 191 1.6 3.2 0.00 0.00 0.00 71 1009.2
20260505034524 18 187 1.6 4.8 0.00 0.00 0.00 71 1009.1
20260505034025 18 191 1.6 4.8 0.00 0.00 0.00 70 1009.0
20260505033503 18 206 1.6 4.8 0.00 0.00 0.00 69 1009.0
20260505033003 19 198 1.6 4.8 0.00 0.00 0.00 69 1009.0
20260505032524 19 192 1.6 3.2 0.00 0.00 0.00 69 1008.9
20260505032003 19 193 1.6 6.4 0.00 0.00 0.00 69 1008.8
20260505031503 20 195 1.6 6.4 0.00 0.00 0.00 68 1008.8
20260505031003 20 202 1.6 6.4 0.00 0.00 0.00 67 1008.8
20260505030503 20 200 1.6 6.4 0.00 0.00 0.00 67 1008.7
20260505030004 20 194 1.6 3.2 0.00 0.00 0.00 67 1008.7
20260505025524 21 181 1.6 4.8 0.00 0.00 0.00 67 1008.6
20260505025003 21 154 1.6 8.0 0.00 0.00 0.00 67 1008.6
20260505024503 21 160 1.6 8.0 0.00 0.00 0.00 67 1008.5
20260505024003 21 150 1.6 3.2 0.00 0.00 0.00 66 1008.5
20260505023503 21 130 1.6 3.2 0.00 0.00 0.00 65 1008.5
20260505023003 21 143 1.6 4.8 0.00 0.00 0.00 65 1008.5
20260505022503 21 167 0.0 4.8 0.00 0.00 0.00 65 1008.5
20260505022004 21 166 0.0 4.8 0.00 0.00 0.00 65 1008.5
20260505021503 21 135 1.6 4.8 0.00 0.00 0.00 65 1008.5
20260505021004 21 118 1.6 4.8 0.00 0.00 0.00 64 1008.5
20260505020503 22 122 1.6 4.8 0.00 0.00 0.00 63 1008.4
20260505020003 22 157 1.6 4.8 0.00 0.00 0.00 63 1008.5
20260505015503 22 156 1.6 3.2 0.00 0.00 0.00 63 1008.5